K5EBQ Weather Reports


time (UTC)temp
C
wind
direction
speed
KPH
gust
KPH
rain 1hr
cm
rain 24hr
cm
rain mn
cm
humidity
%
barometer
mb
20260510020046 23 174 0.0 0.0 0.00 0.33 0.33 82 1007.3
20260510014545 23 174 0.0 0.0 0.00 0.33 0.33 82 1006.8
20260510013044 24 198 0.0 0.0 0.00 0.33 0.33 82 1006.4
20260510011545 24 198 0.0 0.0 0.00 0.33 0.33 79 1006.3
20260510010043 24 198 0.0 0.0 0.00 0.33 0.33 77 1006.1
20260510004543 24 198 0.0 0.0 0.03 0.33 0.33 76 1006.2
20260510003047 24 197 0.0 0.0 0.18 0.33 0.33 76 1006.1
20260510001547 25 211 0.0 0.0 0.30 0.33 0.33 76 1005.9
20260510000041 26 209 0.0 0.0 0.33 0.33 0.33 88 1006.1
20260509234541 26 209 0.0 0.0 0.30 0.30 0.30 87 1005.5
20260509233040 27 204 0.0 0.0 0.15 0.15 0.15 81 1005.5
20260509231539 29 204 0.0 0.0 0.03 0.03 0.03 74 1005.5
20260509230038 31 89 0.0 0.0 0.00 0.00 0.00 66 1005.4
20260509224549 31 88 0.0 0.0 0.00 0.00 0.00 65 1005.1
20260509223038 31 87 0.0 0.0 0.00 0.00 0.00 64 1005.1
20260509221539 31 9 0.0 0.0 0.00 0.00 0.00 64 1005.0
20260509220035 31 9 0.0 0.0 0.00 0.00 0.00 63 1005.0
20260509214534 32 9 0.0 0.0 0.00 0.00 0.00 63 1005.0
20260509213033 32 9 0.0 0.0 0.00 0.00 0.00 63 1005.1
20260509211532 32 5 0.0 0.0 0.00 0.00 0.00 64 1005.2
20260509210032 32 15 0.0 0.0 0.00 0.00 0.00 63 1005.4
20260509204527 32 40 0.0 0.0 0.00 0.00 0.00 63 1005.6
20260509203025 32 47 0.0 0.0 0.00 0.00 0.00 65 1005.7
20260509201522 32 47 0.0 0.0 0.00 0.00 0.00 64 1006.0
20260509200020 31 46 0.0 0.0 0.00 0.00 0.00 65 1006.1
20260509194518 32 107 0.0 0.0 0.00 0.00 0.00 64 1006.3
20260509193016 32 227 0.0 0.0 0.00 0.00 0.00 62 1006.4
20260509191515 31 342 0.0 0.0 0.00 0.00 0.00 64 1006.4
20260509190013 31 232 0.0 0.0 0.00 0.00 0.00 68 1006.6
20260509184517 31 232 0.0 0.0 0.00 0.00 0.00 68 1006.7
20260509183006 30 279 0.0 0.0 0.00 0.00 0.00 71 1006.9
20260509181504 30 161 0.0 0.0 0.00 0.00 0.00 72 1007.2
20260509180003 29 147 0.0 0.0 0.00 0.00 0.00 72 1007.4
20260509174502 29 232 0.0 0.0 0.00 0.00 0.00 74 1007.7
20260509173059 29 141 0.0 0.0 0.00 0.00 0.00 78 1007.9
20260509171557 28 188 0.0 0.0 0.00 0.00 0.00 80 1007.9
20260509170100 27 185 0.0 0.0 0.00 0.00 0.00 83 1007.8
20260509164555 27 109 0.0 0.0 0.00 0.00 0.00 84 1008.1
20260509163051 26 109 0.0 0.0 0.00 0.00 0.00 85 1008.1
20260509161556 26 109 0.0 0.0 0.00 0.00 0.00 85 1008.3
20260509160045 26 109 0.0 0.0 0.00 0.00 0.00 86 1008.3
20260509154540 26 109 0.0 0.0 0.00 0.00 0.00 87 1008.1
20260509153039 25 109 0.0 0.0 0.00 0.00 0.00 89 1008.1
20260509151538 25 109 0.0 0.0 0.00 0.00 0.00 90 1008.2
20260509150037 25 109 0.0 0.0 0.00 0.00 0.00 92 1008.2
20260509144534 25 109 0.0 0.0 0.00 0.00 0.00 93 1007.7
20260509143031 24 109 0.0 0.0 0.00 0.00 0.00 94 1007.7
20260509141532 24 109 0.0 0.0 0.00 0.00 0.00 95 1007.6
20260509140027 24 109 0.0 0.0 0.00 0.00 0.00 95 1007.3
20260509134527 24 109 0.0 0.0 0.00 0.00 0.00 96 1007.5
20260509133026 24 109 0.0 0.0 0.00 0.00 0.00 96 1008.0
20260509131536 23 101 0.0 0.0 0.00 0.00 0.00 96 1008.2
20260509130021 23 95 0.0 0.0 0.00 0.00 0.00 96 1008.2
20260509124523 23 95 0.0 0.0 0.00 0.00 0.00 97 1008.2
20260509123019 23 95 0.0 0.0 0.00 0.00 0.00 96 1008.0
20260509121525 23 95 0.0 0.0 0.00 0.00 0.00 96 1007.9
20260509120018 23 95 0.0 0.0 0.00 0.00 0.00 96 1007.8
20260509114524 23 95 0.0 0.0 0.00 0.00 0.00 96 1007.6
20260509113018 23 95 0.0 0.0 0.00 0.00 0.00 96 1007.9
20260509111516 23 95 0.0 0.0 0.00 0.00 0.00 96 1007.8
20260509110017 23 95 0.0 0.0 0.00 0.00 0.00 96 1007.9
20260509104517 23 95 0.0 0.0 0.00 0.00 0.00 96 1007.3
20260509103014 23 95 0.0 0.0 0.00 0.00 0.00 96 1007.2
20260509101522 23 95 0.0 0.0 0.00 0.00 0.00 96 1007.1
20260509100020 23 95 0.0 0.0 0.00 0.00 0.00 95 1006.9
20260509094516 23 95 0.0 0.0 0.00 0.00 0.00 96 1006.9
20260509093011 23 95 0.0 0.0 0.00 0.00 0.00 96 1007.0
20260509091517 23 95 0.0 0.0 0.00 0.00 0.00 96 1007.3
20260509090008 23 95 0.0 0.0 0.00 0.00 0.00 96 1007.2
20260509084512 23 95 0.0 0.0 0.00 0.00 0.00 95 1007.4
20260509083006 23 95 0.0 0.0 0.00 0.00 0.00 95 1007.2
20260509081506 23 95 0.0 0.0 0.00 0.00 0.00 95 1007.1
20260509080005 23 95 0.0 0.0 0.00 0.00 0.00 95 1007.1
20260509074505 23 95 0.0 0.0 0.00 0.00 0.00 95 1007.1
20260509073004 23 95 0.0 0.0 0.00 0.00 0.00 95 1007.3
20260509071502 23 95 0.0 0.0 0.00 0.00 0.00 95 1007.1
20260509070101 23 95 0.0 0.0 0.00 0.00 0.00 95 1007.5
20260509064618 23 95 0.0 0.0 0.00 0.00 0.00 95 1007.4
20260509063054 23 95 0.0 0.0 0.00 0.00 0.00 95 1007.6
20260509061559 23 95 0.0 0.0 0.00 0.00 0.00 94 1007.8
20260509060047 23 95 0.0 0.0 0.00 0.00 0.00 94 1007.8
20260509054541 23 95 0.0 0.0 0.00 0.00 0.00 94 1007.8
20260509053038 23 95 0.0 0.0 0.00 0.00 0.00 94 1007.9
20260509051537 23 95 0.0 0.0 0.00 0.00 0.00 94 1008.0
20260509050034 23 94 0.0 0.0 0.00 0.00 0.00 94 1007.8
20260509044530 23 94 0.0 0.0 0.00 0.00 0.00 94 1008.1
20260509043030 23 94 0.0 0.0 0.00 0.00 0.00 94 1008.0
20260509041530 23 94 0.0 0.0 0.00 0.00 0.00 93 1008.1
20260509040035 23 94 0.0 0.0 0.00 0.00 0.00 94 1007.8
20260509034541 23 94 0.0 0.0 0.00 0.00 0.00 93 1007.5
20260509033028 23 94 0.0 0.0 0.00 0.00 0.00 93 1007.5
20260509031529 23 94 0.0 0.0 0.00 0.00 0.00 93 1007.5
20260509030028 23 95 0.0 0.0 0.00 0.00 0.00 93 1007.6
20260509024532 23 95 0.0 0.0 0.00 0.00 0.00 93 1007.4
20260509023031 23 94 0.0 0.0 0.00 0.00 0.00 93 1007.3
20260509021526 23 94 0.0 0.0 0.00 0.00 0.00 92 1007.1